CW7731 Weather Reports


time (UTC)temp
F
wind
direction
speed
knots
gust
knots
rain 1hr
in
rain 24hr
in
rain mn
in
humidity
%
barometer
mb
20260904040104 71 308 0.0 0.0 0.00 0.00 0.00 74 1017.4
20260904035123 71 308 0.0 0.0 0.00 0.00 0.00 74 1017.3
20260904034117 70 308 0.0 0.0 0.00 0.00 0.00 73 1017.3
20260904033116 71 307 0.0 0.0 0.00 0.00 0.00 73 1017.3
20260904031121 71 307 0.0 0.0 0.00 0.00 0.00 73 1017.1
20260904030116 71 309 0.0 0.0 0.00 0.00 0.00 73 1017.0
20260904025125 71 309 0.0 0.9 0.00 0.00 0.00 73 1017.1
20260904024142 71 309 0.0 0.0 0.00 0.00 0.00 73 1017.0
20260904023116 71 309 0.0 5.2 0.00 0.00 0.00 73 1017.1
20260904022101 71 306 0.0 1.7 0.00 0.00 0.00 73 1017.1
20260904021132 72 314 0.0 0.0 0.00 0.00 0.00 74 1017.1
20260904014126 72 315 0.0 0.0 0.00 0.00 0.00 71 1017.1
20260904013140 72 315 0.0 0.0 0.00 0.00 0.00 72 1017.1
20260904012105 73 315 0.0 0.9 0.00 0.00 0.00 72 1017.1
20260904011103 73 315 0.0 1.7 0.00 0.00 0.00 72 1017.1
20260904010115 72 323 0.0 0.0 0.00 0.00 0.00 71 1017.1
20260904004106 72 324 0.0 0.0 0.00 0.00 0.00 72 1017.3
20260904003118 73 324 0.0 1.7 0.00 0.00 0.00 72 1017.2
20260904002144 73 324 0.0 0.0 0.00 0.00 0.00 72 1017.2
20260904001111 73 324 0.0 0.0 0.00 0.00 0.00 72 1017.2
20260904000108 73 324 0.0 0.0 0.00 0.00 0.00 71 1017.3
20260903234123 73 324 0.0 0.9 0.00 0.00 0.00 71 1017.3
20260903230143 74 325 0.0 0.0 0.00 0.00 0.00 69 1017.4
20260903224140 75 327 0.0 0.0 0.00 0.00 0.00 69 1017.4
20260903223143 75 327 0.0 0.0 0.00 0.00 0.00 69 1017.3
20260903222104 75 326 0.0 0.0 0.00 0.00 0.00 69 1017.2
20260903221131 76 326 0.0 0.0 0.00 0.00 0.00 68 1017.2
20260903220126 76 326 0.0 0.0 0.00 0.00 0.00 68 1017.1
20260903215103 76 327 0.0 0.0 0.00 0.00 0.00 67 1017.1
20260903214106 77 327 0.0 0.9 0.00 0.00 0.00 66 1017.0
20260903213119 77 330 0.0 0.9 0.00 0.00 0.00 66 1017.0
20260903211106 78 333 0.0 4.3 0.00 0.00 0.00 64 1016.9
20260903210131 78 337 0.0 0.0 0.00 0.00 0.00 63 1016.9
20260903205140 78 337 0.0 0.9 0.00 0.00 0.00 63 1016.8
20260903203125 79 337 0.0 0.9 0.00 0.00 0.00 62 1016.7
20260903202119 80 337 0.0 0.0 0.00 0.00 0.00 62 1016.7
20260903201133 80 337 0.0 0.9 0.00 0.00 0.00 61 1016.7
20260903200126 80 335 0.0 1.7 0.00 0.00 0.00 61 1016.5
20260903195135 80 338 0.0 2.6 0.00 0.00 0.00 61 1016.5
20260903194136 81 338 0.0 0.9 0.00 0.00 0.00 60 1016.4
20260903193114 82 264 0.0 0.0 0.00 0.00 0.00 60 1016.4
20260903192124 82 205 0.0 0.0 0.00 0.00 0.00 58 1016.5
20260903191115 82 205 0.0 0.0 0.00 0.00 0.00 58 1016.3
20260903190142 82 205 0.0 0.0 0.00 0.00 0.00 56 1016.2
20260903185132 83 205 0.0 0.0 0.00 0.00 0.00 55 1016.1
20260903184132 84 204 0.0 0.0 0.00 0.00 0.00 52 1016.0
20260903183115 85 204 0.0 0.0 0.00 0.00 0.00 50 1015.8
20260903182116 85 204 0.0 0.0 0.00 0.00 0.00 50 1015.8
20260903181139 86 204 0.0 0.0 0.00 0.00 0.00 50 1015.7
20260903180118 86 204 0.0 0.0 0.00 0.00 0.00 50 1015.7
20260903175112 86 204 0.0 0.0 0.00 0.00 0.00 49 1015.6
20260903174127 87 204 0.0 0.0 0.00 0.00 0.00 49 1015.5
20260903172131 87 200 0.0 1.7 0.00 0.00 0.00 48 1015.4
20260903170103 88 193 0.9 5.2 0.00 0.00 0.00 47 1015.5
20260903165104 88 200 0.9 5.2 0.00 0.00 0.00 47 1015.5
20260903163107 89 203 0.0 5.2 0.00 0.00 0.00 46 1015.4
20260903161138 89 175 1.7 7.8 0.00 0.00 0.00 46 1015.3
20260903160116 89 173 0.0 8.7 0.00 0.00 0.00 47 1015.3
20260903155123 89 192 0.0 4.3 0.00 0.00 0.00 46 1015.2
20260903154135 89 181 0.9 6.1 0.00 0.00 0.00 45 1015.2
20260903152129 89 173 0.9 7.0 0.00 0.00 0.00 45 1015.2
20260903151118 90 214 0.0 7.0 0.00 0.00 0.00 44 1015.2
20260903145137 90 215 0.9 9.6 0.00 0.00 0.00 45 1015.0
20260903142104 90 179 0.9 7.0 0.00 0.00 0.00 44 1015.7
20260903141104 89 170 0.0 6.1 0.00 0.00 0.00 43 1015.8
20260903135135 90 186 0.0 8.7 0.00 0.00 0.00 43 1015.9
20260903134129 90 170 0.0 5.2 0.00 0.00 0.00 43 1016.1
20260903133109 90 183 0.0 6.1 0.00 0.00 0.00 43 1016.0
20260903132114 89 156 0.0 7.8 0.00 0.00 0.00 43 1015.9
20260903130128 90 172 0.0 5.2 0.00 0.00 0.00 44 1016.1
20260903124114 91 194 0.0 1.7 0.00 0.00 0.00 42 1016.2
20260903123108 90 201 0.0 6.1 0.00 0.00 0.00 42 1016.4
20260903122109 90 189 0.0 10.4 0.00 0.00 0.00 42 1016.4
20260903121146 90 180 0.0 7.8 0.00 0.00 0.00 42 1016.6
20260903120126 91 213 0.0 4.3 0.00 0.00 0.00 41 1016.5
20260903115113 90 214 0.0 4.3 0.00 0.00 0.00 41 1016.6
20260903114108 90 196 0.0 4.3 0.00 0.00 0.00 43 1016.6
20260903113141 90 250 0.0 7.8 0.00 0.00 0.00 42 1016.7
20260903112114 90 199 0.0 6.1 0.00 0.00 0.00 44 1016.7
20260903111129 89 179 0.0 1.7 0.00 0.00 0.00 44 1017.0
20260903110106 89 172 0.0 4.3 0.00 0.00 0.00 44 1017.1
20260903105114 89 235 0.0 1.7 0.00 0.00 0.00 44 1017.2
20260903104131 88 194 0.0 0.0 0.00 0.00 0.00 46 1017.2
20260903101137 87 142 0.0 3.5 0.00 0.00 0.00 46 1017.4
20260903100143 87 162 0.0 0.0 0.00 0.00 0.00 47 1017.7
20260903095107 86 176 0.0 0.0 0.00 0.00 0.00 46 1017.8
20260903094110 85 163 0.0 0.9 0.00 0.00 0.00 49 1017.9
20260903093135 85 148 0.0 0.9 0.00 0.00 0.00 50 1018.0
20260903092137 85 153 0.0 3.5 0.00 0.00 0.00 49 1018.1
20260903091146 86 210 0.0 0.9 0.00 0.00 0.00 49 1018.1
20260903090134 85 210 0.0 0.0 0.00 0.00 0.00 52 1018.1
20260903085101 84 228 0.0 0.0 0.00 0.00 0.00 53 1018.2
20260903084116 84 250 0.0 0.0 0.00 0.00 0.00 53 1018.2
20260903083132 84 259 0.0 0.9 0.00 0.00 0.00 54 1018.2
20260903082144 83 269 0.0 0.9 0.00 0.00 0.00 54 1018.1
20260903081127 83 274 0.0 0.9 0.00 0.00 0.00 55 1018.0
20260903080124 83 300 0.0 0.0 0.00 0.00 0.00 56 1018.0
20260903075141 83 319 0.0 0.0 0.00 0.00 0.00 57 1017.9
20260903074123 82 319 0.0 0.0 0.00 0.00 0.00 58 1018.0
20260903072104 80 319 0.0 0.0 0.00 0.00 0.00 59 1018.0
20260903071114 78 319 0.0 0.0 0.00 0.00 0.00 62 1018.0
20260903070132 77 319 0.0 0.0 0.00 0.00 0.00 64 1018.0
20260903064146 75 319 0.0 0.0 0.00 0.00 0.00 67 1017.9
20260903063130 74 319 0.0 0.9 0.00 0.00 0.00 68 1017.8
20260903062144 74 319 0.0 6.1 0.00 0.00 0.00 69 1017.8
20260903060132 72 303 0.0 1.7 0.00 0.00 0.00 71 1017.6
20260903055110 72 308 0.0 0.9 0.00 0.00 0.00 72 1017.5
20260903053133 70 304 0.0 0.0 0.00 0.00 0.00 74 1017.3
20260903052136 70 309 0.0 0.9 0.00 0.00 0.00 75 1017.1
20260903051129 70 308 0.0 0.0 0.00 0.00 0.00 75 1017.1
20260903050136 69 309 0.0 4.3 0.00 0.00 0.00 75 1017.1
20260903045101 70 309 0.0 0.0 0.00 0.00 0.00 74 1016.9
20260903044128 70 308 0.0 5.2 0.00 0.00 0.00 74 1016.8
20260903043101 70 311 0.0 1.7 0.00 0.00 0.00 74 1016.8
20260903041107 70 308 0.0 0.0 0.00 0.00 0.00 74 1016.7